Patterson, LA

10:28 AM CST on November 12, 2019 (GMT -0600)
Williams Memorial

Weather History for KPTN - September, 2019

Change the Weather History Date:

Tuesday, September 17, 2019

  Actual Average Record
Temperature  
Mean Temperature 82 °F -  
Max Temperature 90 °F 84 °F 95 °F (2004)
Min Temperature 73 °F 68 °F 57 °F (2000)
Cooling Degree Days 16    
Growing Degree Days 32 (Base 50)    
Moisture  
Dew Point 76 °F    
Average Humidity 87    
Maximum Humidity 100    
Minimum Humidity 61    
Precipitation  
Precipitation 0.08 in - - ()
Sea Level Pressure  
Sea Level Pressure 29.99 in    
Wind  
Wind Speed 5 mph (ESE)    
Max Wind Speed 20 mph    
Max Gust Speed 25 mph    
Visibility 7 miles    
Events Rain , Thunderstorm    
Averages and records for this station are not official NWS values.
T = Trace of Precipitation, MM = Missing Value Source: NWS Daily Summary

Daily Weather History Graph

Daily Weather History Graph

Search for Another Location

Airport or City:

Astronomy

Sep. 17, 2019 Rise Set
Actual Time 6:50 AM CDT 7:08 PM CDT
Civil Twilight 6:27 AM CDT 7:32 PM CDT
Nautical Twilight 5:59 AM CDT 8:00 PM CDT
Astronomical Twilight 5:30 AM CDT 8:28 PM CDT
Moon 9:25 PM CDT (9/17) 9:44 AM CDT (9/17)
Length of Visible Light 13h 05m
Length of Day
12h 17m
Waning Gibbous, 89% of the Moon is Illuminated
Sep 17
Waning Gibbous
Sep 21
Last Quarter
Sep 28
New
Oct 5
First Quarter
Oct 13
Full

Hourly Weather History & Observations

Time (CDT) Temp. Heat Index Dew Point Humidity Pressure Visibility Wind Dir Wind Speed Gust Speed Precip Events Conditions
12:25 AM 77.0 °F - 75.2 °F 94% 29.98 in 10.0 mi East 4.6 mph - N/A   Overcast
12:56 AM 77.0 °F - 75.9 °F 96% 29.98 in 10.0 mi East 4.6 mph - N/A   Clear
1:56 AM 77.0 °F - 75.9 °F 96% 29.97 in 10.0 mi East 3.5 mph - N/A   Clear
2:56 AM 75.9 °F - 75.0 °F 97% 29.96 in 10.0 mi ESE 3.5 mph - N/A   Clear
3:56 AM 75.9 °F - 75.9 °F 100% 29.96 in 10.0 mi East 3.5 mph - N/A   Clear
4:56 AM 77.0 °F - 75.9 °F 96% 29.95 in 10.0 mi ENE 3.5 mph - N/A   Scattered Clouds
5:15 AM 77.0 °F - 75.2 °F 94% 29.95 in 10.0 mi East 3.5 mph - N/A   Overcast
5:46 AM 77.0 °F - 75.2 °F 94% 29.97 in 10.0 mi East 3.5 mph - N/A   Scattered Clouds
5:56 AM 77.0 °F - 75.9 °F 96% 29.97 in 10.0 mi East 4.6 mph - N/A   Partly Cloudy
6:26 AM 77.0 °F - 75.2 °F 94% 29.98 in 7.0 mi East 5.8 mph - N/A   Mostly Cloudy
6:56 AM 77.0 °F - 75.9 °F 96% 29.99 in 3.0 mi ESE 3.5 mph - N/A   Mostly Cloudy
7:11 AM 77.0 °F - 77.0 °F 100% 29.99 in 2.5 mi East 4.6 mph - N/A   Scattered Clouds
7:22 AM 78.8 °F - 77.0 °F 94% 29.99 in 3.0 mi East 4.6 mph - N/A   Mostly Cloudy
7:56 AM 78.1 °F - 77.0 °F 96% 30.01 in 2.0 mi East 3.5 mph - N/A   Mostly Cloudy
8:41 AM 80.6 °F 88.1 °F 78.8 °F 94% 30.01 in 2.0 mi ESE 4.6 mph - N/A   Scattered Clouds
8:56 AM 81.0 °F 88.6 °F 78.1 °F 91% 30.02 in 2.5 mi East 8.1 mph - N/A   Partly Cloudy
9:33 AM 84.2 °F 96.1 °F 78.8 °F 84% 30.02 in 2.0 mi ESE 6.9 mph - N/A   Haze
9:37 AM 84.2 °F 96.1 °F 78.8 °F 84% 30.02 in 1.0 mi ESE 11.5 mph - N/A   Haze
9:45 AM 84.2 °F 96.1 °F 78.8 °F 84% 30.03 in 2.0 mi Variable 6.9 mph - N/A   Haze
9:56 AM 86.0 °F 99.3 °F 79.0 °F 79% 30.03 in 3.0 mi ESE 6.9 mph - N/A   Haze
10:00 AM 86.0 °F 99.3 °F 78.8 °F 79% 30.03 in 2.5 mi ESE 8.1 mph - N/A   Haze
10:07 AM 86.0 °F 99.3 °F 78.8 °F 79% 30.03 in 1.5 mi ESE 6.9 mph - N/A   Haze
10:12 AM 86.0 °F 99.3 °F 78.8 °F 79% 30.03 in 1.0 mi ESE 5.8 mph - N/A   Haze
10:29 AM 87.8 °F 102.5 °F 78.8 °F 75% 30.03 in 3.0 mi SE 8.1 mph - N/A   Haze
10:56 AM 87.1 °F 98.8 °F 77.0 °F 72% 30.03 in 7.0 mi ESE 5.8 mph - N/A   Partly Cloudy
11:56 AM 88.0 °F 101.3 °F 78.1 °F 72% 30.02 in 10.0 mi East 8.1 mph - N/A   Scattered Clouds
12:56 PM 89.1 °F 103.2 °F 78.1 °F 70% 30.01 in 10.0 mi SSW 5.8 mph - N/A   Partly Cloudy
1:56 PM 90.0 °F 101.3 °F 75.9 °F 63% 29.99 in 10.0 mi South 11.5 mph - N/A   Partly Cloudy
2:56 PM 88.0 °F 98.5 °F 75.9 °F 67% 29.98 in 10.0 mi South 9.2 mph - N/A   Clear
3:56 PM 90.0 °F 100.2 °F 75.0 °F 61% 29.96 in 10.0 mi SSE 12.7 mph - N/A   Partly Cloudy
4:56 PM 88.0 °F 98.5 °F 75.9 °F 67% 29.96 in 10.0 mi South 10.4 mph - N/A   Scattered Clouds
5:56 PM 84.9 °F 95.3 °F 77.0 °F 77% 29.97 in 10.0 mi SSW 6.9 mph - N/A   Scattered Clouds
6:20 PM 78.8 °F - 73.4 °F 83% 29.99 in 10.0 mi SW 19.6 mph 25.3 mph N/A Thunderstorm Mostly Cloudy
6:34 PM 75.2 °F - 73.4 °F 94% 30.00 in 10.0 mi South 9.2 mph - 0.00 in Rain , Thunderstorm Light Rain
6:54 PM 75.2 °F - 73.4 °F 94% 30.01 in 10.0 mi East 5.8 mph - 0.02 in Rain , Thunderstorm Light Rain
6:56 PM 75.9 °F - 73.9 °F 94% 30.01 in 10.0 mi East 6.9 mph - 0.02 in Rain , Thunderstorm Light Rain
7:10 PM 75.2 °F - 73.4 °F 94% 30.00 in 10.0 mi ESE 4.6 mph - 0.00 in Rain , Thunderstorm Light Rain
7:56 PM 75.0 °F - 73.9 °F 96% 29.99 in 10.0 mi ESE 3.5 mph - 0.01 in Rain Light Rain
8:56 PM 73.9 °F - 73.0 °F 97% 29.99 in 10.0 mi Calm Calm - 0.04 in Rain Light Rain
9:56 PM 73.9 °F - 73.0 °F 97% 29.99 in 10.0 mi Calm Calm - 0.01 in   Clear
10:56 PM 75.0 °F - 73.0 °F 94% 29.99 in 10.0 mi Calm Calm - N/A   Clear
11:56 PM 75.0 °F - 73.9 °F 96% 29.98 in 10.0 mi East 3.5 mph - N/A   Clear